Flag for U.S.A. Weather past 2 weeks in Salinas, California, U.S.A.

Now
59 °F

Passing clouds.


Feels Like: 55 °F
Forecast: 56 / 66 °F
Wind: 21 mph from East

Location: Salinas Municipal Airport

Current Time: Oct 25, 2014 at 5:20:18 AM

Latest Report: Oct 25, 2014 at 4:53 AM


Visibility: 10 mi

Pressure: 29.97 "Hg

Humidity: 75%

Dew point: 51 °F

Location of SalinasLocation

Historic Weather in Salinas — Graph

°F

Salinas temperature yesterday

Maximum temperature yesterday: 69 °F (at 12:53 PM)
Minimum temperature yesterday: 50 °F (at 5:53 AM)
Average temperature yesterday: 60 °F

Past Weeks' High & Low Weather Summary

 TemperatureHumidityPressure
High92 °F (Oct 12, 1:53 PM)100% (Oct 12, 6:00 AM)30.13 "Hg (Oct 12, 6:00 AM)
Low49 °F (Oct 22, 3:53 AM)11% (Oct 12, 1:53 PM)29.83 "Hg (Oct 14, 4:53 PM)
Average63 °F69%30.00 "Hg
* Reported Oct 10 3:53 AM — Oct 25 3:53 AM, Salinas, Weather by CustomWeather, © 2014

Note: Actual official high and low records may vary slightly from our data, if they occured in-between our weather recording intervals... More about our weather records

Advertising

Salinas weather history for previous 24 hours

 ConditionsComfort  
Time TempWeatherWind HumidityBarometerVisibility
3:53 AM
Oct 25
57 °FPassing clouds.15 mph87%29.98 "Hg10 mi
2:53 AM57 °FPassing clouds.9 mph83%30.00 "Hg10 mi
1:53 AM57 °FClear.10 mph83%30.01 "Hg10 mi
12:53 AM58 °FClear.7 mph84%30.00 "Hg10 mi
11:53 PM
Oct 24
56 °FClear.5 mph84%30.01 "Hg10 mi
10:53 PM57 °FClear.5 mph83%29.98 "Hg10 mi
9:53 PM62 °FClear.No wind78%29.98 "Hg10 mi
8:53 PM63 °FClear.No wind75%29.97 "Hg10 mi
7:53 PM64 °FOvercast.5 mph75%29.96 "Hg10 mi
6:53 PM63 °FScattered clouds.7 mph78%29.95 "Hg10 mi
5:53 PM64 °FPassing clouds.12 mph73%29.95 "Hg10 mi
4:53 PM64 °FOvercast.13 mph75%29.95 "Hg10 mi
4:00 PM66 °FPartly sunny.14 mph68%29.92 "Hg10 mi
2:53 PM69 °FSunny.15 mph63%29.95 "Hg10 mi
1:53 PM69 °FSunny.12 mph63%29.95 "Hg10 mi
12:53 PM69 °FSunny.12 mph66%29.97 "Hg10 mi
11:53 AM66 °FSunny.8 mph68%29.99 "Hg10 mi
10:53 AM63 °FSunny.5 mph60%30.00 "Hg10 mi
9:53 AM58 °FSunny.No wind75%30.01 "Hg10 mi
8:53 AM53 °FSunny.No wind86%30.02 "Hg10 mi
7:53 AM51 °FClear.No wind89%30.01 "Hg8 mi
6:53 AM50 °FClear.No wind89%29.99 "Hg10 mi
5:53 AM50 °FClear.3 mph86%29.99 "Hg8 mi
Weather by CustomWeather, © 2014

See weather overviewHow to use our weather pages